Regional Weather Roundup
Issued by NWS Midland/Odessa, TX

Skip options and go directly to product.
Home | Oldest Version | Previous Version | Current Version | All | Text Only | Save Text | Print | Product List | Glossary On

Skip product version selection by date and time.   
504
ASUS44 KMAF 260310
RWRMAF
MIDLAND AREA WEATHER ROUNDUP
NATIONAL WEATHER SERVICE MIDLAND TX
900 PM CST SAT FEB 25 2017

...IN SOUTHWEST TEXAS AND SOUTHEAST NEW MEXICO...

CITY           SKY/WX    TMP DP  RH WIND       PRES   REMARKS
ALPINE         CLEAR     49   2  14 SW5       30.01S
ANDREWS        FAIR      48  26  42 S7        29.91F
ARTESIA        CLOUDY    50   5  16 SW12      29.86S
BIG SPRING     CLEAR     49  28  44 E16       29.96S
CARLSBAD       CLOUDY    49  16  26 SE8       29.87R
DRYDEN           N/A     53  30  41 E5        29.95F
FORT STOCKTON  CLEAR     54  29  38 SE20G29   29.91F
GUAD PASS      CLOUDY    50   0  12 W25         N/A
HOBBS          CLOUDY    43  16  33 SE6       29.91S WCI  39
MARFA          CLEAR     36   1  22 NW3       29.99R
MIDLAND AIRPK  CLEAR     55  27  34 SE9       29.93S
MIDLAND INTL   CLEAR     50  27  40 SE9       29.92S
ODESSA         CLEAR     55  25  31 S14       29.92F
PECOS          CLEAR     56  25  30 E10       29.88S
PRESIDIO       FAIR      62   2   9 N7        29.90S
SEMINOLE       CLOUDY    43  26  52 CALM      29.91F
SNYDER         CLEAR     42  26  52 SE7       29.96F WCI  38
WINK           CLEAR     54  25  32 SE14      29.89R
$$
...OTHER STATIONS IN TEXAS...

CITY           SKY/WX    TMP DP  RH WIND       PRES   REMARKS
ABILENE        CLEAR     42  27  55 SE9       29.99F WCI  37
AMARILLO       CLEAR     42  20  41 S18       29.86S WCI  34
AUSTIN         CLEAR     46  33  60 CALM      30.09S
BROWNSVILLE    CLEAR     66  59  78 NE7       30.02S
CORPUS CHRISTI CLEAR     55  46  71 SE6       30.05F
DALLAS FTW     PTCLDY    46  21  37 SE5       30.07R
DEL RIO        CLEAR     59  30  33 E12       29.99S
EL PASO        PTCLDY    56   6  13 SE5       29.91S
HOUSTON INT    CLEAR     56  35  45 NE3       30.10R
LUBBOCK        CLEAR     43  23  45 S15       29.92R WCI  36
SAN ANGELO     CLEAR     49  33  54 SE9       29.98S
SAN ANTONIO    PTCLDY    54  31  41 VRB3      30.08R
WACO           CLEAR     45  30  55 E3        30.10R
WICHITA FALLS  NOT AVBL
$$
...OTHER LOCATIONS IN NEW MEXICO...

CITY           SKY/WX    TMP DP  RH WIND       PRES   REMARKS
ALAMAGORDO     CLEAR     54   3  13 S7        29.94R
ALBUQUERQUE    PTCLDY    46  -5  11 NW9       29.86F
CANNON AFB     CLEAR     38  19  45 S10       29.86S WCI  31
CLOVIS         CLEAR     41  18  38 S14       29.86S WCI  33
HOLLOMAN AFB   CLEAR     56   0  10 W21G29    29.95R
ROSWELL        CLEAR     42  18  37 SW7         N/A  WCI  38
RUIDOSO        CLEAR     41  -4  15 W16G23    29.93R WCI  33
SANTA FE       CLOUDY    32   3  29 NE6       29.87R WCI  26
TRUTH OR CONSE CLEAR     51  -2  11 SW13      29.90S
TUCUMCARI      CLEAR     37  12  35 SW9       29.82S WCI  30
$$

  • National Weather Service
  • Southern Region Headquarters
  • 819 Taylor Street, Room 10A06
  • Fort Worth, TX 76102
  • Page Author: NWS Fort Worth
  • Web Master: SR-SRH.Webmaster@noaa.gov
  •  
  • Page last modified: 30-Sep-2016 6:36 PM UTC
USA.gov is the U.S. government's official web portal to all federal, state and local government web resources and services.